Theta_e
333 334 333 331 332 331 330 333 333 332 331 330 328 324 321 320 319 317 316 315 315 317 318 318 319 323 320 321 321 321 320 320
333 332 331 330 330 328 327 327 326 326 327 327 326 321 319 316 316 316 313 313 313 314 315 316 317 317 317 318 318 319 319 320
334 333 332 329 327 326 325 326 324 324 323 323 322 318 315 315 315 315 314 313 312 313 312 314 315 316 316 316 315 315 316 317
330 329 327 326 327 325 325 324 323 320 319 320 318 315 313 313 313 315 315 312 311 310 310 311 313 314 315 315 314 314 314 314
329 327 325 325 324 322 317 316 318 319 317 315 314 314 313 312 313 314 313 311 310 310 310 311 312 314 315 315 314 314 314 314
325 325 323 320 316 314 315 315 312 313 313 313 312 311 311 311 311 311 313 313 311 310 311 311 312 314 313 313 313 313 312 311
321 322 319 316 316 313 312 312 310 311 311 311 310 310 309 309 309 309 311 312 313 310 311 312 314 313 312 311 312 312 310 311
320 320 319 318 316 313 311 311 310 310 310 309 308 308 308 308 308 309 310 311 312 311 312 312 314 314 311 310 310 313 310 309
318 318 319 317 316 314 312 309 309 310 309 307 306 306 306 307 308 309 309 310 311 311 312 314 315 313 311 308 308 312 307 308
316 316 316 315 314 314 310 308 308 308 308 307 306 304 304 304 304 306 308 310 311 313 312 311 312 310 306 305 304 307 306 306
315 314 315 315 312 311 308 307 306 306 305 305 304 303 302 302 302 304 305 309 311 311 310 309 309 307 304 304 303 303 301 304
314 313 312 314 315 311 308 306 305 304 304 303 301 299 299 300 301 302 305 308 309 309 308 307 306 305 305 304 303 302 303 300
312 313 313 315 311 309 307 305 304 303 302 301 300 300 300 301 302 303 303 304 307 308 306 306 305 304 305 305 303 302 301 300
313 315 315 311 310 308 305 303 303 302 302 301 301 300 300 300 301 302 302 302 305 307 305 305 305 304 303 303 304 303 302 301
312 313 312 310 307 307 304 303 302 302 302 302 301 301 301 301 302 302 302 302 303 305 305 305 305 305 305 304 304 303 302 302
313 313 311 310 308 307 306 303 302 302 302 302 301 302 302 302 303 302 301 302 302 304 307 305 305 305 306 307 303 303 302 302
312 312 312 310 309 307 306 303 302 302 302 302 301 302 302 302 303 302 300 301 304 305 304 303 303 303 303 303 302 304 304 303
311 312 311 311 310 308 306 304 303 303 302 302 302 302 303 303 302 301 301 301 303 304 302 301 301 302 303 303 302 303 304 303
310 311 311 311 310 307 305 304 303 302 302 301 302 302 304 304 303 302 303 302 303 303 302 300 300 300 301 303 304 303 303 303
310 311 310 309 308 306 305 304 304 303 303 302 302 303 303 303 302 303 303 303 302 304 302 300 299 299 299 300 301 303 302 301
Wind_Speed
11 6 5 6 3 4 4 5 6 5 6 4 4 3 3 4 6 5 5 5 4 5 4 5 5 11 5 7 7 5 7 5
11 9 8 7 6 5 6 5 7 6 5 4 4 4 3 4 4 5 5 4 5 5 4 4 4 4 6 5 4 5 6 6
7 7 6 7 7 6 6 5 6 5 6 4 4 4 4 4 3 5 4 4 4 3 4 4 4 5 4 5 5 5 6 7
9 8 6 7 8 6 5 7 6 7 6 4 4 4 4 3 4 4 5 4 4 4 4 4 5 5 5 4 4 5 6 6
9 7 7 7 6 6 6 6 5 6 6 5 4 4 4 4 4 5 5 5 5 5 4 5 5 5 6 5 5 4 5 7
6 8 8 7 8 8 6 6 7 7 6 5 5 4 4 4 3 4 6 5 5 4 4 5 5 4 4 5 4 5 6 6
7 3 5 7 8 7 6 6 7 8 7 6 6 6 5 3 4 4 6 5 6 4 4 4 5 4 5 5 2 3 6 6
12 2 3 3 1 5 6 5 7 7 7 6 4 4 3 4 4 4 6 5 6 5 4 4 4 4 6 6 3 4 3 5
16 12 7 2 1 4 3 7 5 5 3 3 3 3 2 3 3 5 5 5 6 5 4 5 5 6 5 7 3 5 9 7
14 11 7 6 4 3 5 5 6 4 3 3 3 3 2 2 2 4 5 6 5 4 4 4 5 5 9 10 6 3 5 8
15 14 11 8 6 4 6 5 6 5 6 5 4 3 3 3 3 3 4 5 5 5 6 5 5 5 5 7 7 7 4 7
14 14 12 11 8 6 5 6 6 6 5 4 4 4 3 1 1 2 3 5 5 5 5 5 5 4 6 5 6 5 5 6
15 14 13 10 8 7 6 6 6 6 6 6 5 5 2 1 3 3 4 4 5 5 5 4 5 4 3 5 6 6 5 4
12 11 9 9 7 6 6 7 5 5 5 6 7 7 5 4 3 3 3 2 3 5 4 3 4 4 4 4 3 6 4 5
16 15 12 11 11 9 7 7 6 5 6 6 7 7 6 6 3 2 3 2 3 4 3 4 3 3 1 3 4 4 3 4
17 16 14 13 12 11 9 8 7 6 6 6 5 6 3 3 2 2 2 1 1 3 2 4 4 5 4 3 3 3 4 4
20 17 14 14 13 13 11 9 6 6 6 5 5 5 5 3 2 2 1 1 1 2 4 4 4 5 5 4 3 4 4 4
16 16 15 13 12 10 9 9 9 7 7 5 5 5 4 4 3 3 1 1 1 4 4 4 4 4 4 4 3 3 5 2
17 15 14 14 12 11 10 9 9 7 6 6 6 5 4 2 2 2 1 1 0 2 3 3 3 4 4 3 3 3 4 2
15 15 14 13 14 13 13 10 9 8 7 6 6 5 4 4 4 2 1 2 2 2 2 3 3 3 3 3 2 2 2 3
Wind_Direction
149 147 145 142 113 70 62 111 105 103 100 83 72 72 64 54 48 42 41 39 20 21 15 11 2 6 3 3 360 1 348 342
159 153 143 121 92 72 65 73 94 80 85 81 87 81 63 57 45 39 40 36 30 22 21 4 6 357 353 354 350 337 335 327
125 114 106 109 100 76 64 68 75 78 73 76 69 65 60 63 53 44 43 45 38 13 10 5 360 351 355 343 340 333 325 328
122 132 133 113 104 90 84 72 72 81 86 89 95 75 61 56 50 42 44 42 25 17 4 357 352 346 339 337 332 333 327 331
144 131 122 124 111 114 93 85 77 82 90 89 81 63 66 52 48 40 40 38 26 12 1 351 341 340 342 343 345 344 341 340
119 131 124 121 112 107 105 116 101 94 87 93 93 78 76 58 40 32 29 31 26 10 1 352 340 352 352 354 357 339 348 348
26 53 132 140 141 145 127 102 99 99 92 85 77 69 62 51 39 23 19 18 20 20 4 346 345 356 8 358 348 348 354 348
165 205 -0 358 106 115 114 112 107 102 98 95 80 77 55 45 33 26 17 12 16 9 352 354 352 9 11 4 5 351 4 339
128 141 171 189 261 128 128 107 115 108 94 101 80 74 36 41 23 19 13 16 11 5 354 360 357 20 5 6 5 354 13 359
152 148 146 173 183 153 108 100 109 105 104 115 117 125 77 64 359 18 21 13 2 9 13 18 15 21 30 23 22 359 14 21
166 155 161 150 177 173 126 117 105 96 105 108 79 65 47 28 11 8 359 353 3 20 29 34 38 36 38 39 18 35 12 27
158 155 161 167 174 149 134 123 110 104 123 103 105 116 111 213 41 342 345 1 10 35 36 40 51 25 38 40 32 31 39 30
164 161 170 161 154 154 136 124 107 111 107 113 115 104 121 94 51 34 22 -0 7 37 48 38 51 38 28 47 41 42 44 59
164 164 159 145 140 136 139 126 113 117 122 119 122 126 108 91 63 45 24 349 3 25 32 49 54 50 30 21 55 61 61 61
167 169 167 157 161 156 153 144 140 150 135 132 131 119 119 109 100 65 20 17 5 347 18 27 25 16 29 32 50 58 82 99
175 176 173 168 165 165 157 157 148 160 162 145 133 137 123 118 117 96 67 53 335 313 67 39 28 33 32 45 47 61 70 80
175 174 176 169 167 175 166 159 155 169 171 146 156 146 136 134 124 99 69 323 1 85 91 60 27 27 30 47 54 60 78 75
177 175 174 172 169 163 154 161 170 172 161 163 167 162 152 133 127 137 108 349 45 113 86 66 39 34 31 32 49 39 78 59
177 175 174 170 160 158 163 166 164 169 166 166 160 166 165 150 180 219 181 174 53 119 102 78 58 42 28 34 45 37 61 14
172 172 171 166 162 162 168 169 174 176 166 161 172 166 175 168 206 249 217 229 242 211 148 95 62 54 41 44 28 2 357 331